Weather History for Ypsilanti, MI

Change the Weather History Date:

Thursday, November 17, 2011

  Actual Average Record
Temperature  
Mean Temperature 32 °F -  
Max Temperature 39 °F 47 °F 66 °F (1971)
Min Temperature 26 °F 31 °F 17 °F (2014)
Degree Days  
Heating Degree Days 32    
Moisture  
Dew Point 20 °F    
Average Humidity 62    
Maximum Humidity 76    
Minimum Humidity 41    
Precipitation  
Precipitation 0.00 in - - ()
Sea Level Pressure  
Sea Level Pressure 30.11 in    
Wind  
Wind Speed 11 mph (WSW)    
Max Wind Speed 26 mph    
Max Gust Speed 34 mph    
Visibility 10 miles    
Events      
Averages and records for this station are not official NWS values.
T = Trace of Precipitation, MM = Missing Value Source: NWS Daily Summary

Daily Weather History Graph

Daily Weather History Graph

Search for Another Location

Airport:

Trip Planner

Search our weather history database for the weather conditions in past years. The results will help you decide how hot, cold, wet, or windy it might be!

Date:

Astronomy

Nov. 17, 2011 Rise Set
Actual Time 7:26 AM EST 5:10 PM EST
Civil Twilight 6:56 AM EST 5:41 PM EST
Nautical Twilight 6:22 AM EST 6:15 PM EST
Astronomical Twilight 5:49 AM EST 6:48 PM EST
Moon 11:32 PM EST (11/17) 12:33 PM EST (11/17)
Length of Visible Light 10h 44m
Length of Day
9h 44m
Waning Gibbous, 60% of the Moon is Illuminated
Nov 17
Waning Gibbous
Nov 18
Last Quarter
Nov 25
New
Dec 2
First Quarter
Dec 10
Full

Hourly Weather History & Observations

Time (EST) Temp. Windchill Dew Point Humidity Pressure Visibility Wind Dir Wind Speed Gust Speed Precip Events Conditions
12:53 AM 32.0 °F 27.5 °F 21.0 °F 64% 30.07 in 10.0 mi West 4.6 mph - N/A   Clear
1:53 AM 30.9 °F 23.5 °F 23.0 °F 72% 30.08 in 10.0 mi SW 8.1 mph - N/A   Clear
2:53 AM 30.0 °F 22.4 °F 23.0 °F 75% 30.08 in 10.0 mi SSW 8.1 mph - N/A   Clear
3:53 AM 30.9 °F 22.8 °F 24.1 °F 76% 30.07 in 10.0 mi SW 9.2 mph - N/A   Clear
4:53 AM 30.0 °F 21.7 °F 23.0 °F 75% 30.06 in 10.0 mi SW 9.2 mph - N/A   Clear
5:53 AM 30.0 °F 21.7 °F 21.9 °F 72% 30.05 in 10.0 mi SSW 9.2 mph - N/A   Clear
6:53 AM 30.0 °F 21.1 °F 21.9 °F 72% 30.05 in 10.0 mi SW 10.4 mph - N/A   Clear
7:53 AM 30.0 °F 21.1 °F 21.9 °F 72% 30.05 in 10.0 mi SW 10.4 mph - N/A   Clear
8:53 AM 34.0 °F 26.0 °F 23.0 °F 64% 30.06 in 10.0 mi SW 10.4 mph - N/A   Clear
9:53 AM 37.4 °F 28.5 °F 21.2 °F 52% 30.04 in 10.0 mi West 15.0 mph - N/A   Clear
10:53 AM 39.0 °F 29.9 °F 19.0 °F 45% 30.05 in 10.0 mi West 17.3 mph 26.5 mph N/A   Mostly Cloudy
11:53 AM 37.9 °F 28.9 °F 19.0 °F 47% 30.04 in 10.0 mi West 16.1 mph - N/A   Mostly Cloudy
12:53 PM 37.9 °F 26.3 °F 16.0 °F 41% 30.03 in 10.0 mi West 26.5 mph 33.4 mph N/A   Overcast
1:53 PM 37.9 °F 26.8 °F 18.0 °F 45% 30.04 in 10.0 mi West 24.2 mph 34.5 mph N/A   Overcast
3:53 PM 35.1 °F 24.1 °F 17.1 °F 48% 30.09 in 10.0 mi West 19.6 mph 24.2 mph N/A   Overcast
4:53 PM 34.0 °F 23.8 °F 18.0 °F 52% 30.13 in 10.0 mi West 16.1 mph 25.3 mph N/A   Overcast
5:53 PM 33.1 °F 22.6 °F 19.9 °F 59% 30.16 in 9.0 mi West 16.1 mph 24.2 mph 0.00 in   Overcast
6:53 PM 33.1 °F 23.9 °F 19.9 °F 59% 30.18 in 10.0 mi West 12.7 mph - N/A   Overcast
7:53 PM 33.1 °F 24.9 °F 19.0 °F 56% 30.20 in 10.0 mi WSW 10.4 mph - N/A   Overcast
8:53 PM 30.9 °F 23.5 °F 19.0 °F 61% 30.22 in 10.0 mi WSW 8.1 mph - N/A   Mostly Cloudy
9:53 PM 26.1 °F 18.4 °F 17.1 °F 69% 30.23 in 10.0 mi SW 6.9 mph - N/A   Clear
10:53 PM 27.0 °F 19.5 °F 18.0 °F 69% 30.24 in 10.0 mi SSW 6.9 mph - N/A   Clear
11:53 PM 26.1 °F 18.4 °F 18.0 °F 71% 30.25 in 10.0 mi SW 6.9 mph - N/A   Clear